Weather History for LGSM - January, 2013

Change the Weather History Date:

Monday, January 28, 2013

  Actual Average Record
Temperature  
Mean Temperature 52 °F -  
Max Temperature 57 °F 56 °F 64 °F (2001)
Min Temperature 48 °F 44 °F 33 °F (2006)
Degree Days  
Heating Degree Days 12    
Growing Degree Days 2 (Base 50)    
Moisture  
Dew Point 43 °F    
Average Humidity 66    
Maximum Humidity 82    
Minimum Humidity 49    
Precipitation  
Precipitation 0.00 in 0.14 in - ()
Sea Level Pressure  
Sea Level Pressure 29.92 in    
Wind  
Wind Speed 8 mph ()    
Max Wind Speed 12 mph    
Max Gust Speed -    
Visibility 6.2 miles    
Events      
Averages and records for this station are not official NWS values.
T = Trace of Precipitation, MM = Missing Value Source: Averaged Metar Reports

Daily Weather History Graph

Daily Weather History Graph

Search for Another Location

Airport or City:

Trip Planner

Search our weather history database for the weather conditions in past years. The results will help you decide how hot, cold, wet, or windy it might be!

Date:

Astronomy

Jan. 28, 2013 Rise Set
Actual Time 7:19 AM EET 5:31 PM EET
Civil Twilight 6:51 AM EET 5:59 PM EET
Nautical Twilight 6:19 AM EET 6:31 PM EET
Astronomical Twilight 5:49 AM EET 7:02 PM EET
Moon 7:03 PM EET (1/28) 7:37 AM EET (1/28)
Length of Visible Light 11h 07m
Length of Day
10h 12m
Full, 98% of the Moon is Illuminated
Jan 28
Full
Feb 3
Last Quarter
Feb 10
New
Feb 17
First Quarter
Feb 25
Full

Hourly Weather History & Observations

Time (EET) Temp. Dew Point Humidity Pressure Visibility Wind Dir Wind Speed Gust Speed Precip Events Conditions
4:50 AM 51.8 °F 44.6 °F 76% 29.89 in 6.2 mi NNE 5.8 mph - N/A   Scattered Clouds
5:20 AM 51.8 °F 44.6 °F 76% 29.89 in 6.2 mi North 4.6 mph - N/A   Scattered Clouds
5:50 AM 51.8 °F 44.6 °F 76% 29.89 in 6.2 mi North 6.9 mph - N/A   Scattered Clouds
6:20 AM 51.8 °F 44.6 °F 76% 29.89 in 6.2 mi North 8.1 mph - N/A   Scattered Clouds
6:50 AM 50.0 °F 44.6 °F 82% 29.92 in 6.2 mi North 6.9 mph - N/A   Mostly Cloudy
7:20 AM 50.0 °F 44.6 °F 82% 29.92 in 6.2 mi North 8.1 mph - N/A   Mostly Cloudy
7:50 AM 50.0 °F 42.8 °F 76% 29.92 in 6.2 mi North 9.2 mph - N/A   Scattered Clouds
8:00 AM 50 °F 43 °F 68% 29.93 in 6 mi North 9.2 mph - -   Mostly Cloudy
8:20 AM 50.0 °F 42.8 °F 76% 29.92 in 6.2 mi North 8.1 mph - N/A   Scattered Clouds
8:50 AM 50.0 °F 42.8 °F 76% 29.92 in 6.2 mi North 8.1 mph - N/A   Scattered Clouds
9:20 AM 51.8 °F 42.8 °F 71% 29.92 in 6.2 mi North 8.1 mph - N/A   Scattered Clouds
9:50 AM 51.8 °F 41.0 °F 67% 29.92 in 6.2 mi North 11.5 mph - N/A   Scattered Clouds
10:20 AM 53.6 °F 41.0 °F 62% 29.92 in 6.2 mi North 10.4 mph - N/A   Partly Cloudy
10:50 AM 53.6 °F 42.8 °F 67% 29.92 in 6.2 mi North 10.4 mph - N/A   Partly Cloudy
11:20 AM 53.6 °F 42.8 °F 67% 29.92 in 6.2 mi North 11.5 mph - N/A   Partly Cloudy
11:50 AM 55.4 °F 42.8 °F 63% 29.92 in 6.2 mi North 11.5 mph - N/A   Partly Cloudy
12:20 PM 55.4 °F 41.0 °F 58% 29.92 in 6.2 mi North 11.5 mph - N/A   Scattered Clouds
12:50 PM 55.4 °F 41.0 °F 58% 29.92 in 6.2 mi North 11.5 mph - N/A   Scattered Clouds
1:20 PM 57.2 °F 41.0 °F 55% 29.92 in 6.2 mi North 11.5 mph - N/A   Scattered Clouds
1:50 PM 57.2 °F 42.8 °F 59% 29.92 in 6.2 mi North 11.5 mph - N/A   Scattered Clouds
2:00 PM 57 °F 43 °F 49% 29.93 in 6 mi North 11.5 mph - -   Partly Cloudy
2:20 PM 57.2 °F 42.8 °F 59% 29.92 in 6.2 mi North 11.5 mph - N/A   Scattered Clouds
2:50 PM 57.2 °F 42.8 °F 59% 29.92 in 6.2 mi North 11.5 mph - N/A   Scattered Clouds
3:20 PM 57.2 °F 42.8 °F 59% 29.92 in 6.2 mi North 11.5 mph - N/A   Scattered Clouds
3:50 PM 57.2 °F 42.8 °F 59% 29.92 in 6.2 mi North 11.5 mph - N/A   Scattered Clouds
4:50 PM 57.2 °F 44.6 °F 63% 29.92 in 6.2 mi North 11.5 mph - N/A   Scattered Clouds
5:20 PM 57.2 °F 44.6 °F 63% 29.92 in 6.2 mi North 11.5 mph - N/A   Scattered Clouds
5:50 PM 57.2 °F 44.6 °F 63% 29.92 in 6.2 mi North 11.5 mph - N/A   Scattered Clouds
6:20 PM 55.4 °F 44.6 °F 67% 29.92 in 6.2 mi North 11.5 mph - N/A   Scattered Clouds
6:50 PM 55.4 °F 44.6 °F 67% 29.92 in 6.2 mi North 11.5 mph - N/A   Scattered Clouds
7:20 PM 55.4 °F 44.6 °F 67% 29.92 in 6.2 mi North 11.5 mph - N/A   Scattered Clouds
7:50 PM 53.6 °F 41.0 °F 62% 29.92 in 6.2 mi Variable 3.5 mph - N/A   Scattered Clouds
8:00 PM 54 °F 41 °F 51% 29.93 in 6 mi 3.5 mph - -   Partly Cloudy